P/2004 A1 (LONEOS)
Epoch 2004 Aug. 23.0 TT = JDT 2453240.5  
T 2004 Aug. 25.83960 TT                                 Nakano
q   5.4625308            (2000.0)            P               Q
n   0.04442126     Peri.   20.48501     -0.82154634     -0.55008194
a   7.8960306      Node   125.24591     +0.49421219     -0.81817861
e   0.3081928      Incl.   10.57680     +0.28428140     -0.16731294
P  22.19 (+/- 0.01 day)
From 491 observations 2003 Oct. 25-2007 Aug. 7, mean residual 0".66.
Residuals in seconds of arc 
2003/                     040212 A46  0.0   0.3-    050204 704  1.3-  0.8+  
031025 691  0.3-  0.4-    040213 442 (3.3+  3.1-)   050204 704  1.2+  1.2+  
031025 691  0.2-  0.1-    040214 213  0.1+  0.9-    050204 704  0.1-  1.3-  
031025 691  0.2+  0.3-    040214 213  0.2+  0.9-    050204 704  1.0+  0.9+  
031218 291  0.3-  0.2+    040214 130  0.3+  0.1+    050204 213  0.0   1.0-  
031218 291  0.2-  0.3+    040214 130  0.5+  0.2+    050205 213  0.2+  0.2-  
031218 291  0.6+  0.1+    040214 130  0.0   0.5-    050205 213  1.9+  0.3+  
2004/                     040214 A41  0.4+  1.2+    050205 360  0.2+  0.1-  
040105 703  1.4-  0.7+    040214 A41  0.8+  0.5-    050205 360  0.4+  0.2-  
040105 703  0.4-  0.2+    040215 204  0.2+  0.4+    050206 A61 (2.7+  2.1-) 
040105 703 (2.8-  1.1-)   040216 704  0.8+  0.3+    050206 A61 (2.1+  2.2-) 
040105 703 (1.4-  2.1-)   040216 704  0.4+  0.3+    050206 A61  0.1-  0.8-  
040113 699  0.6-  0.7+    040216 785  0.0   1.5+    050210 132  1.3-  0.6+  
040113 699  0.3+  0.1-    040216 704  0.5-  0.2-    050210 132  0.1+  0.1+  
040113 699  0.3-  0.3-    040216 704  0.1-  0.0     050210 132  0.8-  0.3+  
040113 699  0.9-  1.1+    040216 704  1.0-  0.1-    050211 349  0.3+  0.0   
040113 673  0.5+  0.1+    040216 785  0.4+  0.8+    050211 349  0.3+  0.1-  
040113 673  0.4+  0.1-    040216 785  0.7-  0.1-    050211 349  0.2+  0.2-  
040113 673  0.4+  0.2+    040216 D83 (0.7-  4.0-)   050213 355  0.3-  1.5-  
040113 673  0.5+  0.2+    040216 D83  1.1+  0.3+    050213 355 (1.1-  2.0-) 
040113 J95  0.1-  0.0     040216 D83  1.0-  1.2+    050214 704  0.7+  0.1+  
040113 J95  0.4-  0.2+    040216 246  0.5+  0.0     050214 704  0.9+  0.4-  
040113 J95  0.1+  0.1-    040216 246  0.4+  0.2+    050214 704  1.3+  0.4+  
040114 349  1.2-  0.3+    040216 246  0.2+  0.2+    050214 704  1.1+  0.9+  
040114 349  0.6-  0.1-    040216 246  0.3+  0.1-    050214 704  0.0   1.8+  
040114 349  1.0-  0.1+    040216 246  0.6+  0.2+    050217 A61 (0.2+  2.0-) 
040114 J95  0.3+  0.5-    040216 246  0.3+  0.0     050217 A61 (2.4+  3.2-) 
040114 J95  0.0   1.2-    040216 246  0.2-  0.0     050217 A61  0.6+  1.6-  
040114 J95  0.5-  0.3-    040217 608  0.3-  0.8+    050218 132  0.8+  1.4+  
040115 372  0.4-  0.3-    040217 608  0.3-  0.9+    050218 132  1.4-  1.9+  
040115 360  0.2+  0.4-    040217 608  0.5+  0.6+    050218 132  0.5+  0.2-  
040115 360  0.2-  0.3+    040217 349  1.1+  0.3+    050219 A02  0.3-  0.3+  
040115 360  0.0   0.4-    040217 349  0.8+  0.2+    050219 A02  0.2-  0.1-  
040116 204  0.8+  0.2-    040217 349  1.8+  0.0     050221 213  0.9-  0.7-  
040116 204  0.3+  0.5-    040217 A41  0.4-  0.2-    050221 213  0.4-  0.6-  
040116 204  0.5-  0.1+    040217 A41  1.0-  0.5-    050228 415  0.6+  0.0   
040116 644  0.1+  0.1-    040217 A41  0.5-  1.0-    050228 415  0.4+  0.7-  
040116 644  0.4-  0.3+    040218 360  0.4+  0.1-    050228 415  0.9+  0.0   
040116 644  0.2+  0.2+    040218 360  0.0   0.0     050301 G92  0.4+  0.2-  
040117 J95  0.5+  0.1+    040218 372  0.3+  0.4+    050301 G92  1.1+  0.6-  
040117 J95  0.0   0.3+    040219 850  0.0   0.3+    050301 G92  0.2+  0.1+  
040117 J95  1.1+  0.4-    040219 850  0.7-  1.1-    050302 A61  0.9-  0.2+  
040117 900 (2.0-  0.0 )   040219 850  0.1+  0.3-    050302 A61  0.4+  1.6-  
040117 360  0.3+  0.4-    040220 215  0.2+  0.4-    050302 A61  0.6+  1.1-  
040117 360  0.5+  0.6-    040220 215  0.5-  0.5-    050302 A41  0.4-  1.1+  
040117 900  0.3-  0.6-    040220 A46  1.2+  0.5+    050302 A41  0.1+  1.0+  
040118 J95  0.2+  0.3-    040220 A46  0.5+  0.7-    050302 A41  0.5+  0.7+  
040118 J95  0.7+  0.1-    040220 A46  0.7-  0.4-    050304 704  0.7+  0.6-  
040118 J95  0.1+  0.2-    040220 A46  1.4-  0.0     050304 704 (1.4-  2.5-) 
040119 699  0.4-  0.5-    040220 A46  0.5-  0.1-    050304 704  0.5+  0.7+  
040119 699  0.5-  0.1-    040220 A46  0.2-  0.8-    050304 704  0.5-  0.6+  
040119 699  0.7-  0.1-    040220 A33  0.3+  0.6-    050304 704 (1.0-  2.1+) 
040119 699  0.2+  0.6-    040220 A33  0.1-  0.4-    050306 360  0.5+  0.4-  
040119 691  0.3-  0.1+    040222 628  0.4+  0.3+    050306 360  0.5+  0.5-  
040119 703  0.1+  0.4+    040222 628  0.1+  0.4+    050306 224  0.1+  0.3+  
040119 691  0.3-  0.2+    040222 628  0.1+  0.2+    050306 224  0.8-  0.2+  
040119 703  0.3+  0.3+    040222 213  0.0   0.4-    050307 224  0.3-  0.1-  
040119 703  0.3-  0.6+    040222 213  0.1+  0.3-    050307 A41  0.2-  1.1+  
040119 691  0.4-  0.2+    040222 213  0.8-  0.3+    050307 A41  0.8-  0.6+  
040119 703 (2.7-  0.8-)   040222 213  0.1+  0.6-    050307 224  0.2-  0.2+  
040119 372  1.1+  1.0-    040226 704  1.5+  0.1-    050307 A41  1.4-  1.5+  
040119 372  1.0+  1.1-    040226 704 (1.0+  2.3+)   050307 212  0.0   0.0   
040119 J87  0.1-  0.5-    040226 704  1.1+  1.6+    050307 212  1.4+  0.5+  
040119 J87  0.1-  0.3-    040226 704  1.5-  1.9+    050307 212  0.3-  1.6+  
040120 H41  0.3-  1.0+    040226 A32  0.7+  1.5+    050308 699  1.3-  0.6+  
040120 H41  0.4-  1.0+    040226 A32  1.5+  1.4-    050308 699  0.7-  0.3+  
040120 H41  0.6-  0.5+    040228 170  0.0   0.5-    050308 699 (2.3-  0.7+) 
040120 H41  0.0   0.6+    040228 170  0.4+  0.2-    050308 699  1.5-  0.5+  
040120 H41  0.9-  0.7+    040228 213  0.6-  0.4+    050309 A61 (2.1+  1.7-) 
040121 704  0.0   0.1+    040228 213  0.9-  0.1+    050309 A61 (5.0+  1.0-) 
040121 704  0.6+  0.5+    040305 A32  0.6+  0.8-    050309 A61  0.5+  1.3-  
040121 704  0.2+  0.5+    040306 A32  0.1-  0.2-    050309 699  1.7-  0.4+  
040121 704  0.6+  0.5+    040307 A32  0.6+  0.7-    050309 699  1.4-  0.1+  
040121 704  0.0   0.2+    040311 850  0.9-  0.4+    050309 699  1.7-  0.2+  
040121 372  0.2+  0.8+    040311 850  0.7-  0.2-    050309 699  0.8-  0.8-  
040121 372  0.2+  0.2+    040311 850  1.1-  0.7-    050310 104  0.3+  0.4+  
040122 H41  1.0-  0.4-    040312 360  0.1-  0.4-    050310 104  0.1+  0.1+  
040122 H41  1.0-  0.8+    040312 360  0.3+  0.4-    050310 104  0.4+  0.3+  
040122 H41  1.1-  0.6-    040312 360  0.5+  0.0     050313 132  1.0-  0.5+  
040122 349  0.1-  0.4-    040313 213  1.8-  0.8+    050313 132  0.8-  0.1+  
040122 349  0.2+  0.5-    040314 D83  1.0-  0.0     050313 132  0.1+  0.1+  
040122 349  0.3+  0.1-    040314 D83  0.1+  0.8-    050316 704  1.3+  0.0   
040122 A46  0.7-  0.5+    040314 D83  0.1-  0.5-    050316 704  0.9+  0.5+  
040122 A46  0.2+  1.6-    040314 246  0.5+  0.0     050316 704  0.7+  1.2+  
040122 A46  0.1+  1.5-    040314 246  0.6+  0.2-    050316 704  0.8+  0.3-  
040122 A46  1.9-  0.8+    040314 246  0.6+  0.2-    050316 704 (0.2-  3.7+) 
040122 A46  1.6-  0.3-    040314 246  0.7+  0.3-    050331 I77  0.4-  0.1-  
040122 A46  1.4-  1.0-    040314 246  0.6+  0.0     050331 I77  0.5+  0.5-  
040123 H41 (0.8+  2.0-)   040314 246  0.4+  0.1-    050405 360  0.2+  0.2+  
040123 H41  1.0+  0.9-    040317 A46  0.3-  0.3-    050405 360  0.3-  0.2-  
040123 H41 (2.5+  0.4+)   040317 A46  0.2-  0.1+    050408 049  0.2-  0.3-  
040123 H41 (2.0+  0.5-)   040317 A46  0.5-  0.4-    050409 049  0.5+  0.1+  
040123 H41  1.1-  1.5+    040317 A46  0.2+  0.0     050409 049  0.2+  0.1-  
040123 900  1.6-  0.7-    040317 A46  1.4-  0.9-    050411 049  1.2+  0.3-  
040123 900  0.4-  0.0     040317 A46  0.7-  1.1-    050411 049  0.6+  0.4-  
040123 246  0.1+  0.5+    040318 J87  0.1+  0.9-    050411 049  0.2+  0.4-  
040123 246  0.3+  0.3+    040318 J87  0.5-  0.9-    050411 049  1.1+  0.3+  
040123 246  0.4+  0.3+    040319 750  1.0+  0.7-    050411 049  1.0+  0.0   
040123 246  0.5+  0.1+    040319 750  0.3+  0.4-    050415 A49  0.8+  0.4+  
040123 246  0.7+  0.1+    040319 J87  0.2+  0.2+    050415 A49  0.5+  0.0   
040124 704  0.1+  0.7+    040319 J87  0.2+  0.3-    050416 A49  0.3+  0.2+  
040124 704  0.1+  0.6+    040319 J87  0.1+  0.4-    050426 A32  0.6+  0.0   
040124 704  0.1-  1.2+    040320 213  0.5+  1.7-    050426 A32  0.2+  0.9+  
040124 704  1.2+  1.1+    040320 213  0.3-  0.1+    050429 360  0.8+  0.7-  
040124 704  0.2-  1.3+    040326 372  0.3+  0.8-    050429 360  0.8+  0.6-  
040124 900  0.9-  0.3+    040326 360  0.6-  0.5+    050429 213  0.1+  0.2-  
040124 900  1.5-  0.5-    040326 360  0.9-  0.1-    050429 213  0.3-  0.1-  
040125 372  0.6-  0.5-    040326 360  0.6-  0.5+    050429 213  0.2-  0.1-  
040126 699  0.4-  0.0     040326 A32  0.8+  0.6-    050506 A61 (6.6-  1.0-) 
040126 699  0.3-  0.2-    040326 A32  0.9+  0.3+    050506 A61 (2.1-  0.1-) 
040126 699  0.0   0.4-    040326 A32  0.7+  0.5+    050506 212  0.3-  0.1-  
040126 699  0.8-  0.5-    040405 170  0.5-  0.0     050506 212  0.6-  0.7+  
040127 704  0.3+  0.3+    040405 170  0.8-  0.2-    050506 212  0.0   0.6-  
040127 704  0.2-  0.8+    040407 J87  0.9-  1.0-    051228 703  1.6-  1.2+  
040127 704  0.1+  0.5+    040407 J87  0.4-  0.2-    051228 703  0.1+  0.0   
040127 704  0.1-  0.6+    040408 360  0.1-  0.4+    051228 703  0.6+  0.5+  
040127 704  0.2-  1.4+    040408 360  0.4+  0.1+    2006/                   
040128 704  0.7+  0.0     040408 A46  0.1-  0.2+    060311 941  1.1+  0.5+  
040128 704  0.5+  0.3+    040408 A46  0.6-  0.9-    060311 941  1.0+  0.5+  
040128 704  0.1+  0.6+    040408 A46  0.2-  1.0-    060311 941  1.0+  0.5+  
040128 704  0.5+  0.7+    040408 A46  0.3+  0.6-    060311 941  0.7+  0.5+  
040128 704  0.7-  0.5+    040408 A46  0.4-  0.1-    060311 941  0.8+  0.7+  
040128 213  0.6-  0.4-    040408 A46  0.1-  0.0     060321 H06  0.2+  0.8-  
040128 213  0.6-  0.6-    040410 A32  0.8+  0.1-    060323 A32 (2.8-  0.5-) 
040128 442  0.9-  0.7+    040410 A32  0.4+  0.1-    060323 A32  0.4-  0.1+  
040130 704  0.2+  0.8+    040411 442 (5.2-  8.7+)   060323 A32  1.0+  0.3+  
040130 704  0.8+  0.6+    040411 442 (6.8-  8.0+)   060323 H06  0.9-  1.0+  
040130 704  0.7+  0.5+    040414 215  0.2-  0.3-    060323 H06 (3.7-  1.1-) 
040130 704  0.2-  0.3-    040420 A32  1.6+  1.3-    060331 A13  1.1-  0.5+  
040130 704  0.7-  1.1+    040420 A32  1.3+  0.3-    060331 A13  1.1-  0.1-  
040131 900  0.4+  0.0     040420 A32  1.1+  0.8+    060404 H42  0.3-  0.8-  
040131 900  0.3+  0.4+    040423 213  0.7+  0.4-    060404 H42  0.8-  1.8-  
040131 349  0.4-  0.0     040423 J97  1.1-  0.2-    060404 H42  0.6-  0.4-  
040131 349  0.3-  0.6-    040423 J97  1.2+  0.9-    060404 H42  0.8+  0.4-  
040131 349  0.3+  0.8-    040423 J97  0.0   0.4-    060407 703  0.7+  0.9-  
040131 360  0.6+  0.0     040424 360  0.1+  0.4-    060407 703  0.8-  0.0   
040131 360  0.5+  0.2-    040424 360  0.0   1.0-    060407 703  1.5-  0.7+  
040201 785  0.5-  0.7-    040424 360  0.1+  0.7-    060407 703  1.4-  0.1-  
040201 785 (0.8+  2.4-)   040502 703  1.2-  0.6+    060407 442  0.1-  1.7+  
040209 104  0.4+  0.1+    040502 703  0.5+  0.1-    060407 442 (2.7+  0.2-) 
040209 104  0.3-  0.2-    040502 703 (0.7+  2.0-)   060418 703  1.6-  1.4-  
040209 104  0.0   0.2+    040502 703  0.5-  0.4-    060418 703 (2.0-  1.7+) 
040209 104  0.2+  0.0     040508 442  1.4-  0.5+    060418 703  0.9-  1.3+  
040209 104  0.5+  0.1-    040508 442  0.7+  0.6+    060418 703  0.8+  1.5+  
040209 170  0.7+  1.2-    040512 704  0.2+  0.2-    060419 A13  0.7-  0.3-  
040209 170  0.0   0.4-    040512 704  0.6+  1.3+    060419 A13  0.1+  0.8-  
040210 644  0.2+  0.0     040512 704  0.6+  1.2+    060419 A13  0.4-  0.6-  
040210 644  0.0   0.7-    040517 442  1.6+  1.4+    060420 699  0.3+  0.6-  
040210 644  0.5+  0.0     040517 442 (2.0-  3.6+)   060420 699  0.2+  0.9+  
040210 D83  0.0   1.0-    040527 291  1.2-  0.5+    060420 699  0.0   0.3-  
040210 D83  0.1-  0.4-    040527 291  0.9-  0.4+    060420 699  0.2+  0.1-  
040210 D83  0.2-  0.3-    040527 291  1.2-  0.2+    060423 204  0.7+  0.2-  
040210 104  0.0   0.6+    040605 J87  0.1-  0.1-    060423 204  0.6+  0.4-  
040210 104  0.2+  0.0     040605 J87  0.3-  0.0     060423 699  0.6+  0.6+  
040210 104  0.4+  0.1+    040605 J87  1.0-  0.4-    060423 699  1.3-  0.6+  
040210 104  0.6+  0.1+    041016 D74  0.5+  0.4-    060423 699  0.1-  0.4+  
040210 104  0.1+  0.0     041016 D74  1.0+  0.0     060423 699  1.4-  0.7+  
040211 104  0.0   0.1+    041016 D74  0.8+  0.8+    060423 A13 (2.4-  0.4-) 
040211 104  0.2+  0.2-    041022 D74 (2.2-  0.3+)   060423 A13  0.4+  0.0   
040211 104  0.6+  0.0     041022 D74  1.3+  0.3+    060423 A13  0.5-  1.0-  
040211 213  1.0-  0.1+    041022 D74  0.2+  0.2+    060426 699  0.4-  0.0   
040211 213  0.1+  1.1-    041202 850  1.3-  0.7-    060426 699  0.5-  0.2-  
040211 A46  0.6-  0.7+    041202 850  0.6+  0.6-    060426 699  0.8-  0.2+  
040211 213  0.4-  0.0     041202 850 (0.6+  3.2-)   060426 699 (2.8-  0.4+) 
040211 A46  1.1+  0.1+    041210 A61 (2.3-  1.6-)   2007/                   
040211 A46  0.5-  0.7-    041210 A61  0.6-  1.5-    070422 691  0.4+  0.5-  
040211 A46  1.0+  0.4-    041210 A61 (3.8-  1.6-)   070422 691  0.5+  0.5-  
040211 A46  0.5-  0.3+    2005/                     070422 691  0.1-  0.6-  
040211 A46  0.1+  0.4-    050104 215 (2.0-  3.0+)   070422 703  1.1-  1.0-  
040212 691  0.1+  0.0     050105 204  1.3-  0.1-    070422 703  0.6-  0.1-  
040212 691  0.3+  0.1-    050108 204  0.1-  0.1-    070422 703  1.2-  0.9-  
040212 691 (0.3-  2.1+)   050122 213  1.0-  0.8+    070422 703  0.8-  0.7+  
040212 360  0.6+  0.2-    050122 213  1.1-  0.7+    070424 691  0.9+  0.9-  
040212 360  1.0+  0.5-    050122 213  1.6-  0.4+    070424 691  0.6+  0.5-  
040212 A46  0.1-  0.9+    050204 704  0.6+  0.4-    070424 691  0.9+  0.3-  
040212 A46  0.1-  0.6-    050204 704  1.1+  0.2-    070807 474  0.7+  0.7-  
040212 A46  0.3-  0.4-    050204 704  1.8+  0.0     070807 474  0.5+  0.9-  
040212 A46  0.3+  0.2-    050204 704  0.9+  0.6+    070807 474  0.3+  0.2-  
040212 A46  0.1-  0.3+    050204 704 (2.1+  2.1+)   070807 474  0.9+  0.7-  

